User: anonymous   Login
Location: Caltech
(34.1382°N, 118.1253°W)
Time: 22:52:38
(UTC-07:00)
Language:

FENGYUN 3A - Orbit

View from above orbital plane
View from above orbital plane
View from above satellite
View from above satellite

Ground track
Ground track

The orbit data is extracted from the following two-line orbital elements,

1 32958U 08026A   14295.71304052  .00000063  00000-0  49886-4 0  4742
2 32958 098.5394 350.1554 0009242 203.3070 156.7689 14.19480387331938
Epoch (UTC): 22 October 2014 17:06:46
Eccentricity: 0.0009242
inclination: 98.5394°
perigee height: 820 km
apogee height: 834 km
right ascension of ascending node: 350.1554°
argument of perigee: 203.3070°
revolutions per day: 14.19480387
mean anomaly at epoch: 156.7689°
orbit number at epoch: 33193

The dashed part of the orbit path shows where the satellite is in the earth's shadow,  

DLR